Year,Month,Day,Hour,Minute,Value (Times are PST for temperature in C)
2016,10,10,00,00,7.90
2016,10,10,00,01,7.80
2016,10,10,00,02,7.80
2016,10,10,00,03,7.60
2016,10,10,00,04,7.50
2016,10,10,00,05,7.30
2016,10,10,00,06,7.20
2016,10,10,00,07,7.20
2016,10,10,00,08,7.10
2016,10,10,00,09,7.00
2016,10,10,00,10,6.90
2016,10,10,00,11,6.90
2016,10,10,00,12,6.80
2016,10,10,00,13,6.70
2016,10,10,00,14,6.70
2016,10,10,00,15,6.70
2016,10,10,00,16,6.60
2016,10,10,00,17,6.60
2016,10,10,00,18,6.60
2016,10,10,00,19,6.60
2016,10,10,00,20,6.60
2016,10,10,00,21,6.60
2016,10,10,00,22,6.60
2016,10,10,00,23,6.70
2016,10,10,00,24,6.70
2016,10,10,00,25,6.70
2016,10,10,00,26,6.70
2016,10,10,00,27,6.70
2016,10,10,00,28,6.70
2016,10,10,00,29,6.80
2016,10,10,00,30,6.80
2016,10,10,00,31,6.80
2016,10,10,00,32,6.80
2016,10,10,00,33,6.80
2016,10,10,00,34,6.70
2016,10,10,00,35,6.70
2016,10,10,00,36,6.70
2016,10,10,00,37,6.60
2016,10,10,00,38,6.50
2016,10,10,00,39,6.50
2016,10,10,00,40,6.40
2016,10,10,00,41,6.40
2016,10,10,00,42,6.30
2016,10,10,00,43,6.30
2016,10,10,00,44,6.30
2016,10,10,00,45,6.30
2016,10,10,00,46,6.30
2016,10,10,00,47,6.30
2016,10,10,00,48,6.30
2016,10,10,00,49,6.30
2016,10,10,00,50,6.30
2016,10,10,00,51,6.30
2016,10,10,00,52,6.20
2016,10,10,00,53,6.20
2016,10,10,00,54,6.20
2016,10,10,00,55,6.20
2016,10,10,00,56,6.20
2016,10,10,00,57,6.20
2016,10,10,00,58,6.20
2016,10,10,00,59,6.20
2016,10,10,01,00,6.20
2016,10,10,01,01,6.30
2016,10,10,01,02,6.40
2016,10,10,01,03,6.40
2016,10,10,01,04,6.50
2016,10,10,01,05,6.50
2016,10,10,01,06,6.50
2016,10,10,01,07,6.50
2016,10,10,01,08,6.50
2016,10,10,01,09,6.50
2016,10,10,01,10,6.40
2016,10,10,01,11,6.40
2016,10,10,01,12,6.30
2016,10,10,01,13,6.30
2016,10,10,01,14,6.30
2016,10,10,01,15,6.20
2016,10,10,01,16,6.20
2016,10,10,01,17,6.20
2016,10,10,01,18,6.20
2016,10,10,01,19,6.20
2016,10,10,01,20,6.20
2016,10,10,01,21,6.10
2016,10,10,01,22,6.10
2016,10,10,01,23,6.10
2016,10,10,01,24,6.10
2016,10,10,01,25,6.10
2016,10,10,01,26,6.20
2016,10,10,01,27,6.20
2016,10,10,01,28,6.30
2016,10,10,01,29,6.30
2016,10,10,01,30,6.40
2016,10,10,01,31,6.40
2016,10,10,01,32,6.50
2016,10,10,01,33,6.60
2016,10,10,01,34,6.80
2016,10,10,01,35,6.80
2016,10,10,01,36,6.80
2016,10,10,01,37,6.80
2016,10,10,01,38,6.80
2016,10,10,01,39,6.80
2016,10,10,01,40,6.70
2016,10,10,01,41,6.60
2016,10,10,01,42,6.60
2016,10,10,01,43,6.50
2016,10,10,01,44,6.40
2016,10,10,01,45,6.40
2016,10,10,01,46,6.30
2016,10,10,01,47,6.30
2016,10,10,01,48,6.20
2016,10,10,01,49,6.20
2016,10,10,01,50,6.20
2016,10,10,01,51,6.10
2016,10,10,01,52,6.10
2016,10,10,01,53,6.10
2016,10,10,01,54,6.10
2016,10,10,01,55,6.10
2016,10,10,01,56,6.00
2016,10,10,01,57,6.00
2016,10,10,01,58,6.00
2016,10,10,01,59,6.00
2016,10,10,02,00,5.90
2016,10,10,02,01,5.90
2016,10,10,02,02,6.00
2016,10,10,02,03,6.00
2016,10,10,02,04,6.10
2016,10,10,02,05,6.10
2016,10,10,02,06,6.20
2016,10,10,02,07,6.20
2016,10,10,02,08,6.30
2016,10,10,02,09,6.30
2016,10,10,02,10,6.30
2016,10,10,02,11,6.30
2016,10,10,02,12,6.40
2016,10,10,02,13,6.40
2016,10,10,02,14,6.50
2016,10,10,02,15,6.60
2016,10,10,02,16,6.60
2016,10,10,02,17,6.70
2016,10,10,02,18,6.80
2016,10,10,02,19,6.80
2016,10,10,02,20,6.90
2016,10,10,02,21,6.90
2016,10,10,02,22,7.00
2016,10,10,02,23,7.10
2016,10,10,02,24,7.20
2016,10,10,02,25,7.20
2016,10,10,02,26,7.20
2016,10,10,02,27,7.20
2016,10,10,02,28,7.20
2016,10,10,02,29,7.20
2016,10,10,02,30,7.20
2016,10,10,02,31,7.20
2016,10,10,02,32,7.20
2016,10,10,02,33,7.20
2016,10,10,02,34,7.20
2016,10,10,02,35,7.20
2016,10,10,02,36,7.20
2016,10,10,02,37,7.20
2016,10,10,02,38,7.20
2016,10,10,02,39,7.10
2016,10,10,02,40,7.00
2016,10,10,02,41,6.90
2016,10,10,02,42,6.80
2016,10,10,02,43,6.80
2016,10,10,02,44,6.70
2016,10,10,02,45,6.70
2016,10,10,02,46,6.60
2016,10,10,02,47,6.60
2016,10,10,02,48,6.50
2016,10,10,02,49,6.50
2016,10,10,02,50,6.60
2016,10,10,02,51,6.60
2016,10,10,02,52,6.60
2016,10,10,02,53,6.70
2016,10,10,02,54,6.70
2016,10,10,02,55,6.70
2016,10,10,02,56,6.70
2016,10,10,02,57,6.70
2016,10,10,02,58,6.70
2016,10,10,02,59,6.70
2016,10,10,03,00,6.70
2016,10,10,03,01,6.70
2016,10,10,03,02,6.60
2016,10,10,03,03,6.50
2016,10,10,03,04,6.40
2016,10,10,03,05,6.30
2016,10,10,03,06,6.20
2016,10,10,03,07,6.10
2016,10,10,03,08,6.00
2016,10,10,03,09,5.90
2016,10,10,03,10,5.80
2016,10,10,03,11,5.70
2016,10,10,03,12,5.60
2016,10,10,03,13,5.60
2016,10,10,03,14,5.50
2016,10,10,03,15,5.50
2016,10,10,03,16,5.40
2016,10,10,03,17,5.40
2016,10,10,03,18,5.30
2016,10,10,03,19,5.30
2016,10,10,03,20,5.30
2016,10,10,03,21,5.30
2016,10,10,03,22,5.30
2016,10,10,03,23,5.30
2016,10,10,03,24,5.30
2016,10,10,03,25,5.30
2016,10,10,03,26,5.30
2016,10,10,03,27,5.30
2016,10,10,03,28,5.30
2016,10,10,03,29,5.40
2016,10,10,03,30,5.40
2016,10,10,03,31,5.50
2016,10,10,03,32,5.60
2016,10,10,03,33,5.70
2016,10,10,03,34,5.70
2016,10,10,03,35,5.80
2016,10,10,03,36,5.80
2016,10,10,03,37,5.80
2016,10,10,03,38,5.80
2016,10,10,03,39,5.80
2016,10,10,03,40,5.70
2016,10,10,03,41,5.70
2016,10,10,03,42,5.60
2016,10,10,03,43,5.60
2016,10,10,03,44,5.50
2016,10,10,03,45,5.40
2016,10,10,03,46,5.40
2016,10,10,03,47,5.30
2016,10,10,03,48,5.20
2016,10,10,03,49,5.20
2016,10,10,03,50,5.10
2016,10,10,03,51,5.10
2016,10,10,03,52,5.10
2016,10,10,03,53,5.10
2016,10,10,03,54,5.00
2016,10,10,03,55,5.00
2016,10,10,03,56,4.90
2016,10,10,03,57,4.90
2016,10,10,03,58,4.80
2016,10,10,03,59,4.80
2016,10,10,04,00,4.80
2016,10,10,04,01,4.70
2016,10,10,04,02,4.60
2016,10,10,04,03,4.60
2016,10,10,04,04,4.60
2016,10,10,04,05,4.60
2016,10,10,04,06,4.60
2016,10,10,04,07,4.60
2016,10,10,04,08,4.70
2016,10,10,04,09,4.70
2016,10,10,04,10,4.70
2016,10,10,04,11,4.70
2016,10,10,04,12,4.70
2016,10,10,04,13,4.70
2016,10,10,04,14,4.70
2016,10,10,04,15,4.70
2016,10,10,04,16,4.80
2016,10,10,04,17,4.90
2016,10,10,04,18,4.90
2016,10,10,04,19,4.90
2016,10,10,04,20,4.90
2016,10,10,04,21,4.90
2016,10,10,04,22,4.90
2016,10,10,04,23,4.90
2016,10,10,04,24,4.80
2016,10,10,04,25,4.80
2016,10,10,04,26,4.70
2016,10,10,04,27,4.70
2016,10,10,04,28,4.60
2016,10,10,04,29,4.60
2016,10,10,04,30,4.60
2016,10,10,04,31,4.60
2016,10,10,04,32,4.70
2016,10,10,04,33,4.70
2016,10,10,04,34,4.80
2016,10,10,04,35,4.80
2016,10,10,04,36,4.90
2016,10,10,04,37,4.90
2016,10,10,04,38,5.00
2016,10,10,04,39,5.00
2016,10,10,04,40,5.10
2016,10,10,04,41,5.10
2016,10,10,04,42,5.10
2016,10,10,04,43,5.20
2016,10,10,04,44,5.20
2016,10,10,04,45,5.30
2016,10,10,04,46,5.30
2016,10,10,04,47,5.30
2016,10,10,04,48,5.20
2016,10,10,04,49,5.20
2016,10,10,04,50,5.10
2016,10,10,04,51,5.10
2016,10,10,04,52,5.10
2016,10,10,04,53,5.00
2016,10,10,04,54,5.00
2016,10,10,04,55,4.90
2016,10,10,04,56,4.90
2016,10,10,04,57,4.90
2016,10,10,04,58,4.80
2016,10,10,04,59,4.90
2016,10,10,05,00,4.90
2016,10,10,05,01,4.90
2016,10,10,05,02,4.90
2016,10,10,05,03,4.90
2016,10,10,05,04,4.90
2016,10,10,05,05,4.90
2016,10,10,05,06,4.90
2016,10,10,05,07,4.90
2016,10,10,05,08,4.90
2016,10,10,05,09,4.90
2016,10,10,05,10,5.00
2016,10,10,05,11,5.00
2016,10,10,05,12,5.00
2016,10,10,05,13,5.00
2016,10,10,05,14,5.00
2016,10,10,05,15,4.90
2016,10,10,05,16,4.90
2016,10,10,05,17,4.90
2016,10,10,05,18,4.90
2016,10,10,05,19,4.80
2016,10,10,05,20,4.90
2016,10,10,05,21,4.90
2016,10,10,05,22,5.00
2016,10,10,05,23,5.00
2016,10,10,05,24,4.90
2016,10,10,05,25,4.90
2016,10,10,05,26,4.90
2016,10,10,05,27,4.90
2016,10,10,05,28,4.90
2016,10,10,05,29,4.90
2016,10,10,05,30,4.90
2016,10,10,05,31,4.80
2016,10,10,05,32,4.80
2016,10,10,05,33,4.80
2016,10,10,05,34,4.80
2016,10,10,05,35,4.80
2016,10,10,05,36,4.80
2016,10,10,05,37,4.80
2016,10,10,05,38,4.90
2016,10,10,05,39,4.90
2016,10,10,05,40,5.00
2016,10,10,05,41,5.00
2016,10,10,05,42,5.10
2016,10,10,05,43,5.10
2016,10,10,05,44,5.10
2016,10,10,05,45,5.10
2016,10,10,05,46,5.10
2016,10,10,05,47,5.10
2016,10,10,05,48,5.10
2016,10,10,05,49,5.10
2016,10,10,05,50,5.10
2016,10,10,05,51,5.20
2016,10,10,05,52,5.30
2016,10,10,05,53,5.30
2016,10,10,05,54,5.20
2016,10,10,05,55,5.20
2016,10,10,05,56,5.10
2016,10,10,05,57,5.10
2016,10,10,05,58,5.10
2016,10,10,05,59,5.10
2016,10,10,06,00,5.10
2016,10,10,06,01,5.00
2016,10,10,06,02,5.00
2016,10,10,06,03,5.00
2016,10,10,06,04,5.00
2016,10,10,06,05,5.00
2016,10,10,06,06,5.00
2016,10,10,06,07,5.10
2016,10,10,06,08,5.00
2016,10,10,06,09,5.00
2016,10,10,06,10,5.00
2016,10,10,06,11,4.90
2016,10,10,06,12,4.90
2016,10,10,06,13,4.90
2016,10,10,06,14,4.80
2016,10,10,06,15,4.80
2016,10,10,06,16,4.80
2016,10,10,06,17,4.80
2016,10,10,06,18,4.80
2016,10,10,06,19,4.80
2016,10,10,06,20,4.80
2016,10,10,06,21,4.70
2016,10,10,06,22,4.70
2016,10,10,06,23,4.70
2016,10,10,06,24,4.70
2016,10,10,06,25,4.70
2016,10,10,06,26,4.70
2016,10,10,06,27,4.60
2016,10,10,06,28,4.60
2016,10,10,06,29,4.60
2016,10,10,06,30,4.50
2016,10,10,06,31,4.50
2016,10,10,06,32,4.50
2016,10,10,06,33,4.50
2016,10,10,06,34,4.50
2016,10,10,06,35,4.40
2016,10,10,06,36,4.40
2016,10,10,06,37,4.40
2016,10,10,06,38,4.30
2016,10,10,06,39,4.30
2016,10,10,06,40,4.30
2016,10,10,06,41,4.20
2016,10,10,06,42,4.20
2016,10,10,06,43,4.10
2016,10,10,06,44,4.10
2016,10,10,06,45,4.10
2016,10,10,06,46,4.10
2016,10,10,06,47,4.00
2016,10,10,06,48,4.10
2016,10,10,06,49,4.10
2016,10,10,06,50,4.10
2016,10,10,06,51,4.10
2016,10,10,06,52,4.10
2016,10,10,06,53,4.10
2016,10,10,06,54,4.10
2016,10,10,06,55,4.10
2016,10,10,06,56,4.10
2016,10,10,06,57,4.10
2016,10,10,06,58,4.00
2016,10,10,06,59,4.00
2016,10,10,07,00,3.90
2016,10,10,07,01,3.90
2016,10,10,07,02,4.00
2016,10,10,07,03,4.00
2016,10,10,07,04,4.10
2016,10,10,07,05,4.10
2016,10,10,07,06,4.20
2016,10,10,07,07,4.30
2016,10,10,07,08,4.40
2016,10,10,07,09,4.40
2016,10,10,07,10,4.40
2016,10,10,07,11,4.40
2016,10,10,07,12,4.30
2016,10,10,07,13,4.30
2016,10,10,07,14,4.40
2016,10,10,07,15,4.40
2016,10,10,07,16,4.40
2016,10,10,07,17,4.40
2016,10,10,07,18,4.40
2016,10,10,07,19,4.30
2016,10,10,07,20,4.30
2016,10,10,07,21,4.20
2016,10,10,07,22,4.10
2016,10,10,07,23,4.10
2016,10,10,07,24,4.00
2016,10,10,07,25,4.00
2016,10,10,07,26,3.90
2016,10,10,07,27,3.90
2016,10,10,07,28,3.90
2016,10,10,07,29,3.90
2016,10,10,07,30,3.90
2016,10,10,07,31,3.90
2016,10,10,07,32,3.90
2016,10,10,07,33,3.90
2016,10,10,07,34,4.00
2016,10,10,07,35,4.10
2016,10,10,07,36,4.10
2016,10,10,07,37,4.20
2016,10,10,07,38,4.20
2016,10,10,07,39,4.20
2016,10,10,07,40,4.30
2016,10,10,07,41,4.30
2016,10,10,07,42,4.30
2016,10,10,07,43,4.30
2016,10,10,07,44,4.40
2016,10,10,07,45,4.40
2016,10,10,07,46,4.50
2016,10,10,07,47,4.50
2016,10,10,07,48,4.50
2016,10,10,07,49,4.50
2016,10,10,07,50,4.50
2016,10,10,07,51,4.60
2016,10,10,07,52,4.60
2016,10,10,07,53,4.60
2016,10,10,07,54,4.60
2016,10,10,07,55,4.50
2016,10,10,07,56,4.50
2016,10,10,07,57,4.50
2016,10,10,07,58,4.50
2016,10,10,07,59,4.40
2016,10,10,08,00,4.40
2016,10,10,08,01,4.40
2016,10,10,08,02,4.50
2016,10,10,08,03,4.50
2016,10,10,08,04,4.60
2016,10,10,08,05,4.60
2016,10,10,08,06,4.60
2016,10,10,08,07,4.60
2016,10,10,08,08,4.60
2016,10,10,08,09,4.60
2016,10,10,08,10,4.60
2016,10,10,08,11,4.60
2016,10,10,08,12,4.70
2016,10,10,08,13,4.70
2016,10,10,08,14,4.70
2016,10,10,08,15,4.70
2016,10,10,08,16,4.70
2016,10,10,08,17,4.70
2016,10,10,08,18,4.70
2016,10,10,08,19,4.70
2016,10,10,08,20,4.70
2016,10,10,08,21,4.70
2016,10,10,08,22,4.80
2016,10,10,08,23,4.80
2016,10,10,08,24,4.90
2016,10,10,08,25,5.00
2016,10,10,08,26,5.10
2016,10,10,08,27,5.20
2016,10,10,08,28,5.20
2016,10,10,08,29,5.20
2016,10,10,08,30,5.30
2016,10,10,08,31,5.30
2016,10,10,08,32,5.40
2016,10,10,08,33,5.40
2016,10,10,08,34,5.40
2016,10,10,08,35,5.50
2016,10,10,08,36,5.50
2016,10,10,08,37,5.60
2016,10,10,08,38,5.60
2016,10,10,08,39,5.70
2016,10,10,08,40,5.70
2016,10,10,08,41,5.70
2016,10,10,08,42,5.80
2016,10,10,08,43,5.80
2016,10,10,08,44,5.80
2016,10,10,08,45,5.80
2016,10,10,08,46,5.80
2016,10,10,08,47,5.80
2016,10,10,08,48,5.80
2016,10,10,08,49,5.80
2016,10,10,08,50,5.80
2016,10,10,08,51,5.70
2016,10,10,08,52,5.70
2016,10,10,08,53,5.70
2016,10,10,08,54,5.70
2016,10,10,08,55,5.70
2016,10,10,08,56,5.70
2016,10,10,08,57,5.70
2016,10,10,08,58,5.70
2016,10,10,08,59,5.70
2016,10,10,09,00,5.70
2016,10,10,09,01,5.70
2016,10,10,09,02,5.70
2016,10,10,09,03,5.70
2016,10,10,09,04,5.70
2016,10,10,09,05,5.90
2016,10,10,09,06,6.00
2016,10,10,09,07,6.00
2016,10,10,09,08,6.10
2016,10,10,09,09,6.10
2016,10,10,09,10,6.20
2016,10,10,09,11,6.20
2016,10,10,09,12,6.30
2016,10,10,09,13,6.30
2016,10,10,09,14,6.30
2016,10,10,09,15,6.40
2016,10,10,09,16,6.40
2016,10,10,09,17,6.50
2016,10,10,09,18,6.50
2016,10,10,09,19,6.60
2016,10,10,09,20,6.60
2016,10,10,09,21,6.70
2016,10,10,09,22,6.70
2016,10,10,09,23,6.80
2016,10,10,09,24,6.80
2016,10,10,09,25,6.90
2016,10,10,09,26,6.90
2016,10,10,09,27,7.00
2016,10,10,09,28,7.00
2016,10,10,09,29,7.10
2016,10,10,09,30,7.20
2016,10,10,09,31,7.20
2016,10,10,09,32,7.30
2016,10,10,09,33,7.40
2016,10,10,09,34,7.50
2016,10,10,09,35,7.60
2016,10,10,09,36,7.70
2016,10,10,09,37,7.80
2016,10,10,09,38,7.90
2016,10,10,09,39,8.00
2016,10,10,09,40,8.20
2016,10,10,09,41,8.30
2016,10,10,09,42,8.40
2016,10,10,09,43,8.50
2016,10,10,09,44,8.60
2016,10,10,09,45,8.70
2016,10,10,09,46,8.80
2016,10,10,09,47,8.90
2016,10,10,09,48,9.00
2016,10,10,09,49,9.10
2016,10,10,09,50,9.20
2016,10,10,09,51,9.20
2016,10,10,09,52,9.30
2016,10,10,09,53,9.30
2016,10,10,09,54,9.40
2016,10,10,09,55,9.50
2016,10,10,09,56,9.60
2016,10,10,09,57,9.60
2016,10,10,09,58,9.70
2016,10,10,09,59,9.80
2016,10,10,10,00,9.90
2016,10,10,10,01,9.90
2016,10,10,10,02,10.00
2016,10,10,10,03,10.00
2016,10,10,10,04,10.00
2016,10,10,10,05,10.10
2016,10,10,10,06,10.10
2016,10,10,10,07,10.10
2016,10,10,10,08,10.10
2016,10,10,10,09,10.20
2016,10,10,10,10,10.20
2016,10,10,10,11,10.20
2016,10,10,10,12,10.20
2016,10,10,10,13,10.20
2016,10,10,10,14,10.20
2016,10,10,10,15,10.30
2016,10,10,10,16,10.30
2016,10,10,10,17,10.30
2016,10,10,10,18,10.40
2016,10,10,10,19,10.40
2016,10,10,10,20,10.40
2016,10,10,10,21,10.40
2016,10,10,10,22,10.40
2016,10,10,10,23,10.50
2016,10,10,10,24,10.50
2016,10,10,10,25,10.50
2016,10,10,10,26,10.60
2016,10,10,10,27,10.50
2016,10,10,10,28,10.50
2016,10,10,10,29,10.50
2016,10,10,10,30,10.60
2016,10,10,10,31,10.70
2016,10,10,10,32,10.70
2016,10,10,10,33,10.80
2016,10,10,10,34,10.80
2016,10,10,10,35,10.80
2016,10,10,10,36,10.80
2016,10,10,10,37,10.80
2016,10,10,10,38,10.90
2016,10,10,10,39,10.90
2016,10,10,10,40,10.90
2016,10,10,10,41,10.90
2016,10,10,10,42,11.00
2016,10,10,10,43,11.00
2016,10,10,10,44,11.00
2016,10,10,10,45,11.00
2016,10,10,10,46,11.00
2016,10,10,10,47,11.00
2016,10,10,10,48,11.10
2016,10,10,10,49,11.10
2016,10,10,10,50,11.10
2016,10,10,10,51,11.10
2016,10,10,10,52,11.10
2016,10,10,10,53,11.10
2016,10,10,10,54,11.00
2016,10,10,10,55,11.00
2016,10,10,10,56,11.00
2016,10,10,10,57,11.10
2016,10,10,10,58,11.10
2016,10,10,10,59,11.10
2016,10,10,11,00,11.10
2016,10,10,11,01,11.10
2016,10,10,11,02,11.20
2016,10,10,11,03,11.20
2016,10,10,11,04,11.20
2016,10,10,11,05,11.20
2016,10,10,11,06,11.30
2016,10,10,11,07,11.30
2016,10,10,11,08,11.30
2016,10,10,11,09,11.30
2016,10,10,11,10,11.40
2016,10,10,11,11,11.50
2016,10,10,11,12,11.50
2016,10,10,11,13,11.60
2016,10,10,11,14,11.70
2016,10,10,11,15,11.70
2016,10,10,11,16,11.70
2016,10,10,11,17,11.70
2016,10,10,11,18,11.70
2016,10,10,11,19,11.70
2016,10,10,11,20,11.80
2016,10,10,11,21,11.80
2016,10,10,11,22,11.80
2016,10,10,11,23,11.80
2016,10,10,11,24,11.80
2016,10,10,11,25,11.70
2016,10,10,11,26,11.70
2016,10,10,11,27,11.70
2016,10,10,11,28,11.70
2016,10,10,11,29,11.70
2016,10,10,11,30,11.70
2016,10,10,11,31,11.60
2016,10,10,11,32,11.60
2016,10,10,11,33,11.60
2016,10,10,11,34,11.50
2016,10,10,11,35,11.50
2016,10,10,11,36,11.60
2016,10,10,11,37,11.60
2016,10,10,11,38,11.60
2016,10,10,11,39,11.60
2016,10,10,11,40,11.70
2016,10,10,11,41,11.70
2016,10,10,11,42,11.70
2016,10,10,11,43,11.70
2016,10,10,11,44,11.70
2016,10,10,11,45,11.70
2016,10,10,11,46,11.70
2016,10,10,11,47,11.70
2016,10,10,11,48,11.70
2016,10,10,11,49,11.70
2016,10,10,11,50,11.70
2016,10,10,11,51,11.70
2016,10,10,11,52,11.70
2016,10,10,11,53,11.70
2016,10,10,11,54,11.70
2016,10,10,11,55,11.70
2016,10,10,11,56,11.70
2016,10,10,11,57,11.80
2016,10,10,11,58,11.80
2016,10,10,11,59,11.80
2016,10,10,12,00,11.80
2016,10,10,12,01,11.80
2016,10,10,12,02,11.70
2016,10,10,12,03,11.70
2016,10,10,12,04,11.60
2016,10,10,12,05,11.50
2016,10,10,12,06,11.40
2016,10,10,12,07,11.30
2016,10,10,12,08,11.30
2016,10,10,12,09,11.20
2016,10,10,12,10,11.20
2016,10,10,12,11,11.20
2016,10,10,12,12,11.20
2016,10,10,12,13,11.20
2016,10,10,12,14,11.20
2016,10,10,12,15,11.20
2016,10,10,12,16,11.20
2016,10,10,12,17,11.20
2016,10,10,12,18,11.20
2016,10,10,12,19,11.20
2016,10,10,12,20,11.20
2016,10,10,12,21,11.30
2016,10,10,12,22,11.20
2016,10,10,12,23,11.20
2016,10,10,12,24,11.20
2016,10,10,12,25,11.20
2016,10,10,12,26,11.20
2016,10,10,12,27,11.30
2016,10,10,12,28,11.30
2016,10,10,12,29,11.30
2016,10,10,12,30,11.30
2016,10,10,12,31,11.30
2016,10,10,12,32,11.30
2016,10,10,12,33,11.20
2016,10,10,12,34,11.20
2016,10,10,12,35,11.20
2016,10,10,12,36,11.10
2016,10,10,12,37,11.10
2016,10,10,12,38,11.10
2016,10,10,12,39,11.10
2016,10,10,12,40,11.10
2016,10,10,12,41,11.10
2016,10,10,12,42,11.10
2016,10,10,12,43,11.10
2016,10,10,12,44,11.10
2016,10,10,12,45,11.10
2016,10,10,12,46,11.10
2016,10,10,12,47,11.10
2016,10,10,12,48,11.10
2016,10,10,12,49,11.10
2016,10,10,12,50,11.10
2016,10,10,12,51,11.10
2016,10,10,12,52,11.10
2016,10,10,12,53,11.10
2016,10,10,12,54,11.10
2016,10,10,12,55,11.10
2016,10,10,12,56,11.10
2016,10,10,12,57,11.00
2016,10,10,12,58,11.00
2016,10,10,12,59,11.00
2016,10,10,13,00,10.90
2016,10,10,13,01,10.90
2016,10,10,13,02,10.90
2016,10,10,13,03,10.90
2016,10,10,13,04,10.90
2016,10,10,13,05,10.80
2016,10,10,13,06,10.80
2016,10,10,13,07,10.80
2016,10,10,13,08,10.80
2016,10,10,13,09,10.90
2016,10,10,13,10,10.90
2016,10,10,13,11,10.90
2016,10,10,13,12,10.90
2016,10,10,13,13,10.90
2016,10,10,13,14,10.90
2016,10,10,13,15,10.90
2016,10,10,13,16,10.90
2016,10,10,13,17,10.90
2016,10,10,13,18,10.90
2016,10,10,13,19,10.90
2016,10,10,13,20,10.90
2016,10,10,13,21,10.90
2016,10,10,13,22,10.90
2016,10,10,13,23,10.90
2016,10,10,13,24,10.80
2016,10,10,13,25,10.80
2016,10,10,13,26,10.80
2016,10,10,13,27,10.80
2016,10,10,13,28,10.80
2016,10,10,13,29,10.80
2016,10,10,13,30,10.90
2016,10,10,13,31,10.90
2016,10,10,13,32,10.80
2016,10,10,13,33,10.80
2016,10,10,13,34,10.80
2016,10,10,13,35,10.80
2016,10,10,13,36,10.80
2016,10,10,13,37,10.80
2016,10,10,13,38,10.70
2016,10,10,13,39,10.70
2016,10,10,13,40,10.70
2016,10,10,13,41,10.60
2016,10,10,13,42,10.60
2016,10,10,13,43,10.60
2016,10,10,13,44,10.60
2016,10,10,13,45,10.60
2016,10,10,13,46,10.60
2016,10,10,13,47,10.60
2016,10,10,13,48,10.60
2016,10,10,13,49,10.60
2016,10,10,13,50,10.50
2016,10,10,13,51,10.50
2016,10,10,13,52,10.50
2016,10,10,13,53,10.40
2016,10,10,13,54,10.40
2016,10,10,13,55,10.40
2016,10,10,13,56,10.40
2016,10,10,13,57,10.40
2016,10,10,13,58,10.50
2016,10,10,13,59,10.50
2016,10,10,14,00,10.50
2016,10,10,14,01,10.50
2016,10,10,14,02,10.50
2016,10,10,14,03,10.50
2016,10,10,14,04,10.50
2016,10,10,14,05,10.50
2016,10,10,14,06,10.50
2016,10,10,14,07,10.50
2016,10,10,14,08,10.50
2016,10,10,14,09,10.60
2016,10,10,14,10,10.60
2016,10,10,14,11,10.60
2016,10,10,14,12,10.70
2016,10,10,14,13,10.70
2016,10,10,14,14,10.70
2016,10,10,14,15,10.80
2016,10,10,14,16,10.80
2016,10,10,14,17,10.80
2016,10,10,14,18,10.80
2016,10,10,14,19,10.80
2016,10,10,14,20,10.90
2016,10,10,14,21,10.90
2016,10,10,14,22,10.90
2016,10,10,14,23,10.90
2016,10,10,14,24,10.90
2016,10,10,14,25,11.00
2016,10,10,14,26,11.00
2016,10,10,14,27,11.00
2016,10,10,14,28,11.00
2016,10,10,14,29,11.00
2016,10,10,14,30,10.90
2016,10,10,14,31,10.90
2016,10,10,14,32,10.90
2016,10,10,14,33,10.90
2016,10,10,14,34,11.00
2016,10,10,14,35,10.90
2016,10,10,14,36,11.00
2016,10,10,14,37,11.00
2016,10,10,14,38,11.00
2016,10,10,14,39,11.00
2016,10,10,14,40,10.90
2016,10,10,14,41,11.00
2016,10,10,14,42,11.00
2016,10,10,14,43,11.00
2016,10,10,14,44,11.00
2016,10,10,14,45,11.00
2016,10,10,14,46,11.00
2016,10,10,14,47,11.10
2016,10,10,14,48,11.10
2016,10,10,14,49,11.20
2016,10,10,14,50,11.20
2016,10,10,14,51,11.20
2016,10,10,14,52,11.30
2016,10,10,14,53,11.30
2016,10,10,14,54,11.30
2016,10,10,14,55,11.30
2016,10,10,14,56,11.30
2016,10,10,14,57,11.30
2016,10,10,14,58,11.30
2016,10,10,14,59,11.20
2016,10,10,15,00,11.20
2016,10,10,15,01,11.20
2016,10,10,15,02,11.20
2016,10,10,15,03,11.20
2016,10,10,15,04,11.20
2016,10,10,15,05,11.20
2016,10,10,15,06,11.20
2016,10,10,15,07,11.20
2016,10,10,15,08,11.10
2016,10,10,15,09,11.10
2016,10,10,15,10,11.00
2016,10,10,15,11,11.10
2016,10,10,15,12,11.10
2016,10,10,15,13,11.00
2016,10,10,15,14,11.10
2016,10,10,15,15,11.10
2016,10,10,15,16,11.10
2016,10,10,15,17,11.10
2016,10,10,15,18,11.10
2016,10,10,15,19,11.10
2016,10,10,15,20,11.10
2016,10,10,15,21,11.20
2016,10,10,15,22,11.20
2016,10,10,15,23,11.20
2016,10,10,15,24,11.20
2016,10,10,15,25,11.20
2016,10,10,15,26,11.30
2016,10,10,15,27,11.20
2016,10,10,15,28,11.20
2016,10,10,15,29,11.30
2016,10,10,15,30,11.30
2016,10,10,15,31,11.30
2016,10,10,15,32,11.30
2016,10,10,15,33,11.30
2016,10,10,15,34,11.30
2016,10,10,15,35,11.30
2016,10,10,15,36,11.30
2016,10,10,15,37,11.30
2016,10,10,15,38,11.40
2016,10,10,15,39,11.40
2016,10,10,15,40,11.40
2016,10,10,15,41,11.40
2016,10,10,15,42,11.40
2016,10,10,15,43,11.40
2016,10,10,15,44,11.40
2016,10,10,15,45,11.40
2016,10,10,15,46,11.40
2016,10,10,15,47,11.40
2016,10,10,15,48,11.50
2016,10,10,15,49,11.50
2016,10,10,15,50,11.60
2016,10,10,15,51,11.60
2016,10,10,15,52,11.60
2016,10,10,15,53,11.60
2016,10,10,15,54,11.70
2016,10,10,15,55,11.80
2016,10,10,15,56,11.80
2016,10,10,15,57,11.80
2016,10,10,15,58,11.80
2016,10,10,15,59,11.80
2016,10,10,16,00,11.80
2016,10,10,16,01,11.80
2016,10,10,16,02,11.80
2016,10,10,16,03,11.80
2016,10,10,16,04,11.80
2016,10,10,16,05,11.80
2016,10,10,16,06,11.80
2016,10,10,16,07,11.70
2016,10,10,16,08,11.70
2016,10,10,16,09,11.70
2016,10,10,16,10,11.70
2016,10,10,16,11,11.70
2016,10,10,16,12,11.70
2016,10,10,16,13,11.70
2016,10,10,16,14,11.70
2016,10,10,16,15,11.70
2016,10,10,16,16,11.70
2016,10,10,16,17,11.70
2016,10,10,16,18,11.70
2016,10,10,16,19,11.60
2016,10,10,16,20,11.60
2016,10,10,16,21,11.60
2016,10,10,16,22,11.60
2016,10,10,16,23,11.50
2016,10,10,16,24,11.60
2016,10,10,16,25,11.50
2016,10,10,16,26,11.50
2016,10,10,16,27,11.50
2016,10,10,16,28,11.50
2016,10,10,16,29,11.40
2016,10,10,16,30,11.40
2016,10,10,16,31,11.40
2016,10,10,16,32,11.40
2016,10,10,16,33,11.40
2016,10,10,16,34,11.40
2016,10,10,16,35,11.40
2016,10,10,16,36,11.40
2016,10,10,16,37,11.40
2016,10,10,16,38,11.40
2016,10,10,16,39,11.40
2016,10,10,16,40,11.40
2016,10,10,16,41,11.40
2016,10,10,16,42,11.40
2016,10,10,16,43,11.40
2016,10,10,16,44,11.40
2016,10,10,16,45,11.40
2016,10,10,16,46,11.40
2016,10,10,16,47,11.40
2016,10,10,16,48,11.40
2016,10,10,16,49,11.30
2016,10,10,16,50,11.30
2016,10,10,16,51,11.30
2016,10,10,16,52,11.30
2016,10,10,16,53,11.40
2016,10,10,16,54,11.40
2016,10,10,16,55,11.40
2016,10,10,16,56,11.40
2016,10,10,16,57,11.40
2016,10,10,16,58,11.40
2016,10,10,16,59,11.40
2016,10,10,17,00,11.40
2016,10,10,17,01,11.50
2016,10,10,17,02,11.50
2016,10,10,17,03,11.50
2016,10,10,17,04,11.50
2016,10,10,17,05,11.50
2016,10,10,17,06,11.60
2016,10,10,17,07,11.60
2016,10,10,17,08,11.60
2016,10,10,17,09,11.60
2016,10,10,17,10,11.60
2016,10,10,17,11,11.60
2016,10,10,17,12,11.60
2016,10,10,17,13,11.70
2016,10,10,17,14,11.70
2016,10,10,17,15,11.70
2016,10,10,17,16,11.70
2016,10,10,17,17,11.70
2016,10,10,17,18,11.70
2016,10,10,17,19,11.70
2016,10,10,17,20,11.70
2016,10,10,17,21,11.70
2016,10,10,17,22,11.70
2016,10,10,17,23,11.70
2016,10,10,17,24,11.80
2016,10,10,17,25,11.80
2016,10,10,17,26,11.80
2016,10,10,17,27,11.80
2016,10,10,17,28,11.80
2016,10,10,17,29,11.80
2016,10,10,17,30,11.80
2016,10,10,17,31,11.90
2016,10,10,17,32,11.80
2016,10,10,17,33,11.80
2016,10,10,17,34,11.80
2016,10,10,17,35,11.70
2016,10,10,17,36,11.60
2016,10,10,17,37,11.50
2016,10,10,17,38,11.40
2016,10,10,17,39,11.30
2016,10,10,17,40,11.30
2016,10,10,17,41,11.20
2016,10,10,17,42,11.20
2016,10,10,17,43,11.10
2016,10,10,17,44,11.10
2016,10,10,17,45,11.10